Time,TemperatureF,DewpointF,PressureIn,WindDirection,WindDirectionDegrees,WindSpeedMPH,WindSpeedGustMPH,Humidity,HourlyPrecipIn,Conditions,Clouds,dailyrainin,SoftwareType,DateUTC
2013-04-28 00:03:00,50.5,47.4,30.26,WNW,286,3.0,6.0,89,0.00,,,0.00,WeatherCatV1.15B25,2013-04-28 04:03:00,
2013-04-28 00:08:00,50.8,47.4,30.26,West,269,0.0,4.0,88,0.00,,,0.00,WeatherCatV1.15B25,2013-04-28 04:08:00,
2013-04-28 00:13:00,50.9,47.5,30.27,WNW,288,4.0,4.0,88,0.00,,,0.00,WeatherCatV1.15B25,2013-04-28 04:13:00,
2013-04-28 00:18:00,50.8,47.4,30.26,SSW,207,2.0,6.0,88,0.00,,,0.00,WeatherCatV1.15B25,2013-04-28 04:18:00,
2013-04-28 00:28:00,50.8,47.4,30.26,WSW,238,5.0,6.0,88,0.00,,,0.00,WeatherCatV1.15B25,2013-04-28 04:28:00,
2013-04-28 00:33:00,51.0,47.6,30.25,SW,236,7.0,9.0,88,0.00,,,0.00,WeatherCatV1.15B25,2013-04-28 04:33:00,
2013-04-28 00:38:00,50.9,47.5,30.25,SW,234,3.0,7.0,88,0.00,,,0.00,WeatherCatV1.15B25,2013-04-28 04:38:00,
2013-04-28 00:43:00,50.8,47.4,30.26,SSW,211,2.0,7.0,88,0.00,,,0.00,WeatherCatV1.15B25,2013-04-28 04:43:00,
2013-04-28 00:48:00,50.8,47.4,30.25,NW,315,3.0,5.0,88,0.00,,,0.00,WeatherCatV1.15B25,2013-04-28 04:48:00,
2013-04-28 00:53:00,50.9,47.5,30.26,West,278,4.0,9.0,88,0.00,,,0.00,WeatherCatV1.15B25,2013-04-28 04:53:00,
2013-04-28 01:03:00,51.1,47.7,30.26,West,272,5.0,9.0,88,0.00,,,0.00,WeatherCatV1.15B25,2013-04-28 05:03:00,
2013-04-28 01:08:00,51.2,47.5,30.26,SW,219,3.0,4.0,87,0.00,,,0.00,WeatherCatV1.15B25,2013-04-28 05:08:00,
2013-04-28 01:13:00,51.4,47.7,30.25,West,276,10.0,10.0,87,0.00,,,0.00,WeatherCatV1.15B25,2013-04-28 05:13:00,
2013-04-28 01:18:00,51.4,47.7,30.24,WSW,249,6.0,9.0,87,0.00,,,0.00,WeatherCatV1.15B25,2013-04-28 05:18:00,
2013-04-28 01:23:00,51.4,47.7,30.24,SW,230,8.0,10.0,87,0.00,,,0.00,WeatherCatV1.15B25,2013-04-28 05:23:00,
2013-04-28 01:28:00,51.3,47.9,30.25,WSW,243,5.0,8.0,88,0.00,,,0.00,WeatherCatV1.15B25,2013-04-28 05:28:00,
2013-04-28 01:33:00,51.0,47.6,30.24,NW,321,1.0,14.0,88,0.00,,,0.00,WeatherCatV1.15B25,2013-04-28 05:33:00,
2013-04-28 01:38:00,50.8,48.0,30.24,West,275,6.0,10.0,90,0.00,,,0.00,WeatherCatV1.15B25,2013-04-28 05:38:00,
2013-04-28 01:43:00,50.6,48.1,30.25,West,261,4.0,4.0,91,0.00,,,0.01,WeatherCatV1.15B25,2013-04-28 05:43:00,
2013-04-28 01:48:00,50.4,47.9,30.25,WNW,284,3.0,3.0,91,0.00,,,0.01,WeatherCatV1.15B25,2013-04-28 05:48:00,
2013-04-28 01:53:00,50.4,47.9,30.25,NNW,332,1.0,9.0,91,0.00,,,0.01,WeatherCatV1.15B25,2013-04-28 05:53:00,
2013-04-28 01:58:00,50.4,47.9,30.25,WNW,284,4.0,9.0,91,0.00,,,0.01,WeatherCatV1.15B25,2013-04-28 05:58:00,
2013-04-28 02:03:00,50.5,48.0,30.25,WSW,246,5.0,11.0,91,0.00,,,0.01,WeatherCatV1.15B25,2013-04-28 06:03:00,
2013-04-28 02:08:00,50.6,48.1,30.25,SW,233,9.0,11.0,91,0.00,,,0.01,WeatherCatV1.15B25,2013-04-28 06:08:00,
2013-04-28 02:13:00,50.6,48.1,30.24,West,274,3.0,8.0,91,0.00,,,0.01,WeatherCatV1.15B25,2013-04-28 06:13:00,
2013-04-28 02:18:00,50.6,48.1,30.24,WSW,253,1.0,10.0,91,0.00,,,0.01,WeatherCatV1.15B25,2013-04-28 06:18:00,
2013-04-28 02:23:00,50.6,48.1,30.24,WSW,255,2.0,6.0,91,0.00,,,0.01,WeatherCatV1.15B25,2013-04-28 06:23:00,
2013-04-28 02:28:00,50.6,48.1,30.23,SSW,211,5.0,9.0,91,0.00,,,0.01,WeatherCatV1.15B25,2013-04-28 06:28:00,
2013-04-28 02:33:00,50.7,48.2,30.23,SW,229,4.0,7.0,91,0.00,,,0.01,WeatherCatV1.15B25,2013-04-28 06:33:00,
2013-04-28 02:38:00,50.7,48.2,30.23,NNW,348,1.0,5.0,91,0.00,,,0.01,WeatherCatV1.15B25,2013-04-28 06:38:00,
2013-04-28 02:43:00,50.7,48.2,30.23,WSW,239,6.0,9.0,91,0.00,,,0.01,WeatherCatV1.15B25,2013-04-28 06:43:00,
2013-04-28 02:48:00,50.8,48.0,30.23,SSW,197,7.0,10.0,90,0.00,,,0.01,WeatherCatV1.15B25,2013-04-28 06:48:00,
2013-04-28 02:53:00,51.0,47.9,30.22,West,266,7.0,8.0,89,0.00,,,0.01,WeatherCatV1.15B25,2013-04-28 06:53:00,
2013-04-28 02:58:00,51.1,48.0,30.22,WSW,252,8.0,10.0,89,0.00,,,0.01,WeatherCatV1.15B25,2013-04-28 06:58:00,
2013-04-28 03:03:00,51.1,48.0,30.23,West,266,3.0,7.0,89,0.00,,,0.01,WeatherCatV1.15B25,2013-04-28 07:03:00,
2013-04-28 03:08:00,51.1,48.0,30.23,WSW,250,3.0,7.0,89,0.00,,,0.01,WeatherCatV1.15B25,2013-04-28 07:08:00,
2013-04-28 03:13:00,51.2,48.1,30.22,WSW,244,4.0,8.0,89,0.00,,,0.01,WeatherCatV1.15B25,2013-04-28 07:13:00,
2013-04-28 03:18:00,51.2,48.1,30.21,ENE,78,0.0,5.0,89,0.00,,,0.01,WeatherCatV1.15B25,2013-04-28 07:18:00,
2013-04-28 03:23:00,51.2,48.1,30.21,WNW,284,3.0,6.0,89,0.00,,,0.01,WeatherCatV1.15B25,2013-04-28 07:23:00,
2013-04-28 03:28:00,51.1,48.0,30.21,SSW,202,0.0,6.0,89,0.00,,,0.01,WeatherCatV1.15B25,2013-04-28 07:28:00,
2013-04-28 03:33:00,51.1,47.7,30.21,NW,313,4.0,9.0,88,0.00,,,0.01,WeatherCatV1.15B25,2013-04-28 07:33:00,
2013-04-28 03:38:00,51.1,47.7,30.20,SW,220,5.0,7.0,88,0.00,,,0.01,WeatherCatV1.15B25,2013-04-28 07:38:00,
2013-04-28 03:43:00,51.2,47.8,30.21,NW,311,3.0,8.0,88,0.00,,,0.01,WeatherCatV1.15B25,2013-04-28 07:43:00,
2013-04-28 03:48:00,51.2,47.8,30.21,SSE,154,1.0,7.0,88,0.00,,,0.01,WeatherCatV1.15B25,2013-04-28 07:48:00,
2013-04-28 03:53:00,51.1,47.4,30.21,West,267,4.0,8.0,87,0.00,,,0.01,WeatherCatV1.15B25,2013-04-28 07:53:00,
2013-04-28 03:58:00,51.1,47.4,30.21,West,263,3.0,9.0,87,0.00,,,0.01,WeatherCatV1.15B25,2013-04-28 07:58:00,
2013-04-28 04:03:00,51.1,47.4,30.22,South,174,1.0,7.0,87,0.00,,,0.01,WeatherCatV1.15B25,2013-04-28 08:03:00,
2013-04-28 04:08:00,51.1,47.1,30.22,South,170,1.0,3.0,86,0.00,,,0.01,WeatherCatV1.15B25,2013-04-28 08:08:00,
2013-04-28 04:13:00,51.0,46.7,30.21,West,259,2.0,2.0,85,0.00,,,0.01,WeatherCatV1.15B25,2013-04-28 08:13:00,
2013-04-28 04:18:00,51.0,47.0,30.21,SW,225,9.0,10.0,86,0.00,,,0.01,WeatherCatV1.15B25,2013-04-28 08:18:00,
2013-04-28 04:23:00,51.0,46.7,30.21,WNW,300,2.0,5.0,85,0.00,,,0.01,WeatherCatV1.15B25,2013-04-28 08:23:00,
2013-04-28 04:28:00,51.0,46.7,30.20,West,267,6.0,13.0,85,0.00,,,0.01,WeatherCatV1.15B25,2013-04-28 08:28:00,
2013-04-28 04:33:00,51.0,46.7,30.20,West,275,6.0,10.0,85,0.00,,,0.01,WeatherCatV1.15B25,2013-04-28 08:33:00,
2013-04-28 04:38:00,51.0,46.3,30.20,NE,36,3.0,12.0,84,0.00,,,0.01,WeatherCatV1.15B25,2013-04-28 08:38:00,
2013-04-28 04:43:00,50.9,46.2,30.21,West,271,7.0,15.0,84,0.00,,,0.01,WeatherCatV1.15B25,2013-04-28 08:43:00,
2013-04-28 04:48:00,51.0,46.0,30.20,SW,220,6.0,12.0,83,0.00,,,0.01,WeatherCatV1.15B25,2013-04-28 08:48:00,
2013-04-28 04:53:00,51.0,46.0,30.21,WSW,243,6.0,9.0,83,0.00,,,0.01,WeatherCatV1.15B25,2013-04-28 08:53:00,
2013-04-28 04:58:00,50.9,45.9,30.22,WSW,250,0.0,11.0,83,0.00,,,0.01,WeatherCatV1.15B25,2013-04-28 08:58:00,
2013-04-28 05:03:00,50.9,45.9,30.22,SW,235,8.0,8.0,83,0.00,,,0.01,WeatherCatV1.15B25,2013-04-28 09:03:00,
2013-04-28 05:08:00,50.8,45.5,30.21,NNE,32,4.0,12.0,82,0.00,,,0.01,WeatherCatV1.15B25,2013-04-28 09:08:00,
2013-04-28 05:13:00,50.8,45.5,30.20,WSW,250,7.0,11.0,82,0.00,,,0.01,WeatherCatV1.15B25,2013-04-28 09:13:00,
2013-04-28 05:18:00,50.7,45.7,30.20,WSW,256,4.0,9.0,83,0.00,,,0.01,WeatherCatV1.15B25,2013-04-28 09:18:00,
2013-04-28 05:23:00,50.6,45.6,30.19,West,259,4.0,8.0,83,0.00,,,0.01,WeatherCatV1.15B25,2013-04-28 09:23:00,
2013-04-28 05:28:00,50.5,45.5,30.20,WSW,257,3.0,8.0,83,0.00,,,0.01,WeatherCatV1.15B25,2013-04-28 09:28:00,
2013-04-28 05:33:00,50.5,45.2,30.19,ESE,111,2.0,18.0,82,0.00,,,0.01,WeatherCatV1.15B25,2013-04-28 09:33:00,
2013-04-28 05:38:00,50.4,45.1,30.18,NW,319,3.0,8.0,82,0.00,,,0.01,WeatherCatV1.15B25,2013-04-28 09:38:00,
2013-04-28 05:43:00,50.3,45.3,30.19,West,266,3.0,13.0,83,0.00,,,0.01,WeatherCatV1.15B25,2013-04-28 09:43:00,
2013-04-28 05:48:00,50.3,45.3,30.19,West,268,7.0,11.0,83,0.00,,,0.01,WeatherCatV1.15B25,2013-04-28 09:48:00,
2013-04-28 05:53:00,50.2,44.9,30.19,NNW,346,2.0,10.0,82,0.00,,,0.01,WeatherCatV1.15B25,2013-04-28 09:53:00,
2013-04-28 05:58:00,50.1,44.5,30.20,SW,218,4.0,9.0,81,0.00,,,0.01,WeatherCatV1.15B25,2013-04-28 09:58:00,
2013-04-28 06:03:00,50.1,44.2,30.19,WSW,256,3.0,13.0,80,0.00,,,0.01,WeatherCatV1.15B25,2013-04-28 10:03:00,
2013-04-28 06:08:00,50.1,43.5,30.19,WSW,252,7.0,7.0,78,0.00,,,0.01,WeatherCatV1.15B25,2013-04-28 10:08:00,
2013-04-28 06:13:00,50.0,43.7,30.18,NW,308,4.0,5.0,79,0.00,,,0.01,WeatherCatV1.15B25,2013-04-28 10:13:00,
2013-04-28 06:18:00,49.8,43.6,30.18,WSW,241,10.0,12.0,79,0.00,,,0.01,WeatherCatV1.15B25,2013-04-28 10:18:00,
2013-04-28 06:23:00,49.7,43.5,30.18,WNW,290,3.0,7.0,79,0.00,,,0.01,WeatherCatV1.15B25,2013-04-28 10:23:00,
2013-04-28 06:28:00,49.7,43.5,30.18,NW,307,6.0,6.0,79,0.00,,,0.01,WeatherCatV1.15B25,2013-04-28 10:28:00,
2013-04-28 06:33:00,49.6,43.0,30.18,NE,40,3.0,12.0,78,0.00,,,0.01,WeatherCatV1.15B25,2013-04-28 10:33:00,
2013-04-28 06:38:00,49.5,42.9,30.18,NW,314,3.0,12.0,78,0.00,,,0.01,WeatherCatV1.15B25,2013-04-28 10:38:00,
2013-04-28 06:43:00,49.5,42.9,30.19,WNW,298,1.0,11.0,78,0.00,,,0.01,WeatherCatV1.15B25,2013-04-28 10:43:00,
2013-04-28 06:48:00,49.5,42.9,30.20,West,264,6.0,12.0,78,0.00,,,0.01,WeatherCatV1.15B25,2013-04-28 10:48:00,
2013-04-28 06:53:00,49.5,42.9,30.19,SE,137,3.0,8.0,78,0.00,,,0.01,WeatherCatV1.15B25,2013-04-28 10:53:00,
2013-04-28 06:58:00,49.5,43.3,30.20,West,263,9.0,11.0,79,0.00,,,0.01,WeatherCatV1.15B25,2013-04-28 10:58:00,
2013-04-28 07:03:00,49.2,43.3,30.20,WSW,248,6.0,10.0,80,0.00,,,0.01,WeatherCatV1.15B25,2013-04-28 11:03:00,
2013-04-28 07:08:00,48.9,43.0,30.20,NW,315,7.0,9.0,80,0.00,,,0.01,WeatherCatV1.15B25,2013-04-28 11:08:00,
2013-04-28 07:13:00,48.8,42.9,30.20,SW,221,3.0,4.0,80,0.00,,,0.01,WeatherCatV1.15B25,2013-04-28 11:13:00,
2013-04-28 07:18:00,48.7,42.8,30.20,NNE,30,0.0,14.0,80,0.00,,,0.01,WeatherCatV1.15B25,2013-04-28 11:18:00,
2013-04-28 07:23:00,48.8,42.9,30.19,WSW,242,5.0,6.0,80,0.00,,,0.01,WeatherCatV1.15B25,2013-04-28 11:23:00,
2013-04-28 07:28:00,48.6,43.4,30.20,West,259,3.0,4.0,82,0.00,,,0.02,WeatherCatV1.15B25,2013-04-28 11:28:00,
2013-04-28 07:33:00,48.3,43.1,30.20,WSW,243,2.0,8.0,82,0.00,,,0.02,WeatherCatV1.15B25,2013-04-28 11:33:00,
2013-04-28 07:38:00,48.1,42.9,30.20,West,281,2.0,10.0,82,0.00,,,0.02,WeatherCatV1.15B25,2013-04-28 11:38:00,
2013-04-28 07:43:00,47.9,43.0,30.20,SW,230,8.0,11.0,83,0.00,,,0.02,WeatherCatV1.15B25,2013-04-28 11:43:00,
2013-04-28 07:48:00,48.0,43.1,30.20,NNE,28,1.0,6.0,83,0.00,,,0.02,WeatherCatV1.15B25,2013-04-28 11:48:00,
2013-04-28 07:53:00,47.9,43.3,30.20,West,270,2.0,8.0,84,0.00,,,0.02,WeatherCatV1.15B25,2013-04-28 11:53:00,
2013-04-28 07:58:00,47.9,43.3,30.21,SW,234,5.0,5.0,84,0.00,,,0.02,WeatherCatV1.15B25,2013-04-28 11:58:00,
2013-04-28 08:03:00,47.9,43.3,30.22,SW,217,2.0,7.0,84,0.00,,,0.02,WeatherCatV1.15B25,2013-04-28 12:03:00,
2013-04-28 08:08:00,47.8,43.5,30.22,South,189,0.0,2.0,85,0.00,,,0.02,WeatherCatV1.15B25,2013-04-28 12:08:00,
2013-04-28 08:13:00,47.8,43.5,30.22,WSW,246,2.0,9.0,85,0.00,,,0.02,WeatherCatV1.15B25,2013-04-28 12:13:00,
2013-04-28 08:18:00,47.8,43.5,30.22,SSW,200,1.0,8.0,85,0.00,,,0.02,WeatherCatV1.15B25,2013-04-28 12:18:00,
2013-04-28 08:23:00,47.9,43.9,30.22,West,276,4.0,10.0,86,0.00,,,0.02,WeatherCatV1.15B25,2013-04-28 12:23:00,
2013-04-28 08:28:00,47.9,43.9,30.23,WNW,297,0.0,1.0,86,0.00,,,0.02,WeatherCatV1.15B25,2013-04-28 12:28:00,
2013-04-28 08:33:00,47.9,43.9,30.23,SSW,203,1.0,4.0,86,0.00,,,0.02,WeatherCatV1.15B25,2013-04-28 12:33:00,
2013-04-28 08:38:00,47.9,44.2,30.23,SSW,205,0.0,0.0,87,0.00,,,0.02,WeatherCatV1.15B25,2013-04-28 12:38:00,
2013-04-28 08:43:00,47.9,44.2,30.23,WSW,248,2.0,2.0,87,0.00,,,0.02,WeatherCatV1.15B25,2013-04-28 12:43:00,
2013-04-28 08:48:00,47.8,44.4,30.22,WSW,239,0.0,0.0,88,0.00,,,0.02,WeatherCatV1.15B25,2013-04-28 12:48:00,
2013-04-28 08:53:00,47.7,44.6,30.22,WSW,239,0.0,0.0,89,0.00,,,0.02,WeatherCatV1.15B25,2013-04-28 12:53:00,
2013-04-28 08:58:00,47.7,44.6,30.22,WSW,242,0.0,0.0,89,0.00,,,0.02,WeatherCatV1.15B25,2013-04-28 12:58:00,
2013-04-28 09:03:00,47.7,44.9,30.22,West,276,1.0,2.0,90,0.39,,,0.04,WeatherCatV1.15B25,2013-04-28 13:03:00,
2013-04-28 09:08:00,47.6,45.4,30.25,West,276,2.0,2.0,92,0.09,,,0.04,WeatherCatV1.15B25,2013-04-28 13:08:00,
2013-04-28 09:13:00,47.4,45.2,30.28,SSW,192,2.0,11.0,92,1.04,,,0.06,WeatherCatV1.15B25,2013-04-28 13:13:00,
2013-04-28 09:18:00,47.1,44.9,30.26,ESE,116,0.0,4.0,92,0.60,,,0.14,WeatherCatV1.15B25,2013-04-28 13:18:00,
2013-04-28 09:23:00,46.9,45.0,30.25,ESE,116,0.0,0.0,93,0.28,,,0.17,WeatherCatV1.15B25,2013-04-28 13:23:00,
2013-04-28 09:28:00,46.7,44.8,30.24,North,10,2.0,2.0,93,0.16,,,0.18,WeatherCatV1.15B25,2013-04-28 13:28:00,
2013-04-28 09:33:00,46.5,44.9,30.23,ENE,67,0.0,1.0,94,0.14,,,0.20,WeatherCatV1.15B25,2013-04-28 13:33:00,
2013-04-28 09:38:00,46.5,44.9,30.23,North,0,1.0,3.0,94,0.14,,,0.21,WeatherCatV1.15B25,2013-04-28 13:38:00,
2013-04-28 09:43:00,46.5,44.9,30.22,NNE,31,0.0,1.0,94,0.10,,,0.21,WeatherCatV1.15B25,2013-04-28 13:43:00,
2013-04-28 09:48:00,46.6,45.2,30.21,NNW,347,2.0,3.0,95,0.09,,,0.22,WeatherCatV1.15B25,2013-04-28 13:48:00,
2013-04-28 09:53:00,46.9,45.5,30.22,NW,324,0.0,0.0,95,0.06,,,0.22,WeatherCatV1.15B25,2013-04-28 13:53:00,
2013-04-28 09:58:00,47.1,46.0,30.22,NNE,12,0.0,0.0,96,0.06,,,0.23,WeatherCatV1.15B25,2013-04-28 13:58:00,
2013-04-28 10:03:00,47.3,46.2,30.21,NW,314,2.0,4.0,96,0.06,,,0.23,WeatherCatV1.15B25,2013-04-28 14:03:00,
2013-04-28 10:08:00,47.4,46.3,30.21,NW,319,1.0,2.0,96,0.06,,,0.24,WeatherCatV1.15B25,2013-04-28 14:08:00,
2013-04-28 10:13:00,47.6,46.2,30.21,ENE,70,0.0,1.0,95,0.11,,,0.25,WeatherCatV1.15B25,2013-04-28 14:13:00,
2013-04-28 10:18:00,47.7,46.3,30.21,WNW,283,0.0,4.0,95,0.19,,,0.27,WeatherCatV1.15B25,2013-04-28 14:18:00,
2013-04-28 10:23:00,47.8,46.4,30.21,WNW,300,1.0,4.0,95,0.15,,,0.28,WeatherCatV1.15B25,2013-04-28 14:23:00,
2013-04-28 10:28:00,47.9,46.5,30.21,WSW,250,0.0,0.0,95,0.12,,,0.29,WeatherCatV1.15B25,2013-04-28 14:28:00,
2013-04-28 10:33:00,48.0,46.6,30.21,West,279,0.0,0.0,95,0.06,,,0.29,WeatherCatV1.15B25,2013-04-28 14:33:00,
2013-04-28 10:38:00,48.2,46.8,30.21,SW,226,0.0,3.0,95,0.05,,,0.30,WeatherCatV1.15B25,2013-04-28 14:38:00,
2013-04-28 10:43:00,48.3,47.2,30.21,WNW,303,0.0,1.0,96,0.10,,,0.31,WeatherCatV1.15B25,2013-04-28 14:43:00,
2013-04-28 10:48:00,48.5,47.4,30.20,WNW,303,0.0,0.0,96,0.14,,,0.32,WeatherCatV1.15B25,2013-04-28 14:48:00,
2013-04-28 10:53:00,48.6,47.5,30.21,WNW,303,0.0,0.0,96,0.15,,,0.33,WeatherCatV1.15B25,2013-04-28 14:53:00,
2013-04-28 10:58:00,48.7,47.6,30.22,WNW,303,0.0,0.0,96,0.09,,,0.34,WeatherCatV1.15B25,2013-04-28 14:58:00,
2013-04-28 11:03:00,48.8,47.7,30.22,NNW,329,0.0,0.0,96,0.09,,,0.34,WeatherCatV1.15B25,2013-04-28 15:03:00,
2013-04-28 11:08:00,48.9,47.8,30.23,NNW,329,0.0,0.0,96,0.07,,,0.35,WeatherCatV1.15B25,2013-04-28 15:08:00,
2013-04-28 11:13:00,48.9,47.8,30.23,NNW,329,0.0,0.0,96,0.11,,,0.36,WeatherCatV1.15B25,2013-04-28 15:13:00,
2013-04-28 11:18:00,48.9,47.8,30.23,NNW,329,0.0,0.0,96,0.10,,,0.37,WeatherCatV1.15B25,2013-04-28 15:18:00,
2013-04-28 11:23:00,48.9,48.1,30.22,NNW,329,0.0,0.0,97,0.16,,,0.38,WeatherCatV1.15B25,2013-04-28 15:23:00,
2013-04-28 11:28:00,48.9,47.8,30.23,NE,49,1.0,2.0,96,0.23,,,0.41,WeatherCatV1.15B25,2013-04-28 15:28:00,
2013-04-28 11:33:00,48.9,47.8,30.23,NE,38,0.0,0.0,96,0.31,,,0.43,WeatherCatV1.15B25,2013-04-28 15:33:00,
2013-04-28 11:38:00,48.8,47.7,30.23,NE,38,0.0,0.0,96,0.38,,,0.46,WeatherCatV1.15B25,2013-04-28 15:38:00,
2013-04-28 11:43:00,48.7,47.6,30.23,NE,38,0.0,0.0,96,0.29,,,0.48,WeatherCatV1.15B25,2013-04-28 15:43:00,
2013-04-28 11:48:00,48.7,47.6,30.23,NE,38,0.0,0.0,96,0.23,,,0.51,WeatherCatV1.15B25,2013-04-28 15:48:00,
2013-04-28 11:53:00,48.7,47.6,30.23,NE,38,0.0,0.0,96,0.20,,,0.52,WeatherCatV1.15B25,2013-04-28 15:53:00,
2013-04-28 11:58:00,48.6,47.5,30.23,NE,41,0.0,1.0,96,0.26,,,0.55,WeatherCatV1.15B25,2013-04-28 15:58:00,
2013-04-28 12:03:00,48.5,47.4,30.23,East,81,2.0,2.0,96,0.25,,,0.57,WeatherCatV1.15B25,2013-04-28 16:03:00,
2013-04-28 12:08:00,48.3,47.2,30.22,NNW,348,0.0,1.0,96,0.34,,,0.60,WeatherCatV1.15B25,2013-04-28 16:08:00,
2013-04-28 12:13:00,48.1,47.0,30.22,North,10,1.0,2.0,96,0.23,,,0.61,WeatherCatV1.15B25,2013-04-28 16:13:00,
2013-04-28 12:18:00,48.0,46.9,30.21,NE,47,1.0,4.0,96,0.17,,,0.63,WeatherCatV1.15B25,2013-04-28 16:18:00,
2013-04-28 12:23:00,47.9,46.8,30.21,NE,34,3.0,3.0,96,0.16,,,0.64,WeatherCatV1.15B25,2013-04-28 16:23:00,
2013-04-28 12:28:00,47.9,46.8,30.20,ENE,65,3.0,7.0,96,0.18,,,0.66,WeatherCatV1.15B25,2013-04-28 16:28:00,
2013-04-28 12:33:00,48.0,46.9,30.21,NE,39,0.0,0.0,96,0.14,,,0.67,WeatherCatV1.15B25,2013-04-28 16:33:00,
2013-04-28 12:38:00,48.1,47.0,30.22,NE,39,0.0,0.0,96,0.17,,,0.68,WeatherCatV1.15B25,2013-04-28 16:38:00,
2013-04-28 12:43:00,48.3,47.5,30.22,NE,39,0.0,0.0,97,0.09,,,0.69,WeatherCatV1.15B25,2013-04-28 16:43:00,
2013-04-28 12:48:00,48.5,47.7,30.21,NE,39,0.0,0.0,97,0.16,,,0.70,WeatherCatV1.15B25,2013-04-28 16:48:00,
2013-04-28 12:53:00,48.7,47.9,30.21,NE,39,0.0,0.0,97,0.10,,,0.71,WeatherCatV1.15B25,2013-04-28 16:53:00,
2013-04-28 12:58:00,48.9,48.1,30.20,NE,39,0.0,0.0,97,0.09,,,0.72,WeatherCatV1.15B25,2013-04-28 16:58:00,
2013-04-28 13:03:00,49.0,48.2,30.20,NE,39,0.0,0.0,97,0.09,,,0.72,WeatherCatV1.15B25,2013-04-28 17:03:00,
2013-04-28 13:08:00,49.0,48.2,30.20,NE,39,0.0,0.0,97,0.08,,,0.73,WeatherCatV1.15B25,2013-04-28 17:08:00,
2013-04-28 13:13:00,49.1,48.3,30.20,NE,39,0.0,0.0,97,0.07,,,0.73,WeatherCatV1.15B25,2013-04-28 17:13:00,
2013-04-28 13:18:00,49.2,48.4,30.19,NE,50,0.0,0.0,97,0.06,,,0.74,WeatherCatV1.15B25,2013-04-28 17:18:00,
2013-04-28 13:23:00,49.4,48.6,30.19,NE,50,0.0,0.0,97,0.08,,,0.75,WeatherCatV1.15B25,2013-04-28 17:23:00,
2013-04-28 13:28:00,49.5,48.7,30.19,NE,36,0.0,0.0,97,0.08,,,0.75,WeatherCatV1.15B25,2013-04-28 17:28:00,
2013-04-28 13:33:00,49.6,48.8,30.19,NE,36,0.0,0.0,97,0.05,,,0.75,WeatherCatV1.15B25,2013-04-28 17:33:00,
2013-04-28 13:38:00,49.8,49.0,30.18,NE,36,0.0,0.0,97,0.05,,,0.76,WeatherCatV1.15B25,2013-04-28 17:38:00,
2013-04-28 13:43:00,49.9,49.1,30.18,SW,236,0.0,0.0,97,0.05,,,0.76,WeatherCatV1.15B25,2013-04-28 17:43:00,
2013-04-28 13:48:00,49.9,49.1,30.18,WSW,244,0.0,2.0,97,0.05,,,0.76,WeatherCatV1.15B25,2013-04-28 17:48:00,
2013-04-28 13:53:00,49.9,49.1,30.18,South,173,0.0,1.0,97,0.04,,,0.77,WeatherCatV1.15B25,2013-04-28 17:53:00,
2013-04-28 13:58:00,49.9,49.1,30.18,SSW,213,0.0,2.0,97,0.04,,,0.77,WeatherCatV1.15B25,2013-04-28 17:58:00,
2013-04-28 14:03:00,49.9,49.1,30.18,SSW,212,0.0,0.0,97,0.05,,,0.78,WeatherCatV1.15B25,2013-04-28 18:03:00,
2013-04-28 14:08:00,49.8,48.7,30.17,SSW,212,0.0,0.0,96,0.05,,,0.78,WeatherCatV1.15B25,2013-04-28 18:08:00,
2013-04-28 14:13:00,49.8,49.0,30.17,SSW,212,0.0,0.0,97,0.05,,,0.78,WeatherCatV1.15B25,2013-04-28 18:13:00,
2013-04-28 14:18:00,49.9,49.1,30.17,SSW,212,0.0,0.0,97,0.04,,,0.78,WeatherCatV1.15B25,2013-04-28 18:18:00,
2013-04-28 14:23:00,50.0,49.2,30.16,SSW,212,0.0,0.0,97,0.00,,,0.78,WeatherCatV1.15B25,2013-04-28 18:23:00,
2013-04-28 14:28:00,50.1,49.3,30.16,SSW,212,0.0,1.0,97,0.00,,,0.79,WeatherCatV1.15B25,2013-04-28 18:28:00,
2013-04-28 14:33:00,50.3,49.5,30.16,SSW,212,0.0,1.0,97,0.00,,,0.79,WeatherCatV1.15B25,2013-04-28 18:33:00,
2013-04-28 14:38:00,50.3,49.5,30.16,SSW,212,0.0,1.0,97,0.00,,,0.79,WeatherCatV1.15B25,2013-04-28 18:38:00,
2013-04-28 14:43:00,50.3,49.5,30.15,SSW,212,0.0,0.0,97,0.00,,,0.79,WeatherCatV1.15B25,2013-04-28 18:43:00,
2013-04-28 14:48:00,50.4,49.6,30.15,SSW,212,1.0,2.0,97,0.00,,,0.79,WeatherCatV1.15B25,2013-04-28 18:48:00,
2013-04-28 14:53:00,50.4,49.6,30.16,SW,223,0.0,3.0,97,0.00,,,0.79,WeatherCatV1.15B25,2013-04-28 18:53:00,
2013-04-28 14:58:00,50.6,49.8,30.16,SW,236,0.0,0.0,97,0.00,,,0.79,WeatherCatV1.15B25,2013-04-28 18:58:00,
2013-04-28 15:03:00,50.7,49.9,30.16,West,281,0.0,1.0,97,0.00,,,0.79,WeatherCatV1.15B25,2013-04-28 19:03:00,
2013-04-28 15:08:00,50.8,50.0,30.17,NW,319,0.0,0.0,97,0.00,,,0.79,WeatherCatV1.15B25,2013-04-28 19:08:00,
2013-04-28 15:13:00,50.9,50.1,30.17,NW,319,0.0,0.0,97,0.00,,,0.80,WeatherCatV1.15B25,2013-04-28 19:13:00,
2013-04-28 15:18:00,51.0,50.2,30.16,NW,319,0.0,0.0,97,0.00,,,0.80,WeatherCatV1.15B25,2013-04-28 19:18:00,
2013-04-28 15:23:00,51.1,50.3,30.16,NW,311,0.0,0.0,97,0.05,,,0.81,WeatherCatV1.15B25,2013-04-28 19:23:00,
2013-04-28 15:28:00,51.1,50.3,30.16,NW,311,0.0,0.0,97,0.08,,,0.82,WeatherCatV1.15B25,2013-04-28 19:28:00,
2013-04-28 15:33:00,51.2,50.4,30.16,NW,311,0.0,0.0,97,0.08,,,0.82,WeatherCatV1.15B25,2013-04-28 19:33:00,
2013-04-28 15:38:00,51.3,50.5,30.16,NW,311,0.0,0.0,97,0.07,,,0.83,WeatherCatV1.15B25,2013-04-28 19:38:00,
2013-04-28 15:43:00,51.4,50.6,30.16,WNW,301,0.0,0.0,97,0.10,,,0.84,WeatherCatV1.15B25,2013-04-28 19:43:00,
2013-04-28 15:48:00,51.4,50.6,30.16,WNW,301,0.0,0.0,97,0.08,,,0.84,WeatherCatV1.15B25,2013-04-28 19:48:00,
2013-04-28 15:53:00,51.5,50.7,30.15,WNW,301,0.0,0.0,97,0.08,,,0.85,WeatherCatV1.15B25,2013-04-28 19:53:00,
2013-04-28 15:58:00,51.6,50.8,30.15,WNW,301,0.0,0.0,97,0.10,,,0.86,WeatherCatV1.15B25,2013-04-28 19:58:00,
2013-04-28 16:03:00,51.6,50.8,30.15,SSE,150,0.0,4.0,97,0.10,,,0.87,WeatherCatV1.15B25,2013-04-28 20:03:00,
2013-04-28 16:08:00,51.6,50.8,30.14,ENE,57,2.0,4.0,97,0.08,,,0.87,WeatherCatV1.15B25,2013-04-28 20:08:00,
2013-04-28 16:13:00,51.5,50.7,30.14,North,5,0.0,2.0,97,0.07,,,0.88,WeatherCatV1.15B25,2013-04-28 20:13:00,
2013-04-28 16:18:00,51.5,50.7,30.14,North,5,0.0,0.0,97,0.07,,,0.88,WeatherCatV1.15B25,2013-04-28 20:18:00,
2013-04-28 16:23:00,51.4,50.6,30.15,WSW,252,0.0,1.0,97,0.06,,,0.89,WeatherCatV1.15B25,2013-04-28 20:23:00,
2013-04-28 16:28:00,51.3,50.2,30.15,SSW,196,0.0,0.0,96,0.06,,,0.89,WeatherCatV1.15B25,2013-04-28 20:28:00,
2013-04-28 16:33:00,51.2,50.4,30.15,SSW,196,0.0,1.0,97,0.05,,,0.89,WeatherCatV1.15B25,2013-04-28 20:33:00,
2013-04-28 16:38:00,51.1,50.3,30.14,SSW,196,0.0,0.0,97,0.00,,,0.89,WeatherCatV1.15B25,2013-04-28 20:38:00,
2013-04-28 16:48:00,51.2,50.4,30.13,SSW,196,0.0,0.0,97,0.09,,,0.91,WeatherCatV1.15B25,2013-04-28 20:48:00,
2013-04-28 16:53:00,51.2,50.4,30.13,SSW,196,0.0,0.0,97,0.09,,,0.91,WeatherCatV1.15B25,2013-04-28 20:53:00,
2013-04-28 16:58:00,51.3,50.5,30.12,SW,229,0.0,0.0,97,0.06,,,0.91,WeatherCatV1.15B25,2013-04-28 20:58:00,
2013-04-28 17:03:00,51.5,50.7,30.12,NW,325,0.0,1.0,97,0.04,,,0.91,WeatherCatV1.15B25,2013-04-28 21:03:00,
2013-04-28 17:08:00,51.5,50.7,30.13,SW,222,2.0,5.0,97,0.04,,,0.92,WeatherCatV1.15B25,2013-04-28 21:08:00,
2013-04-28 17:13:00,51.5,50.7,30.13,WSW,241,0.0,2.0,97,0.04,,,0.92,WeatherCatV1.15B25,2013-04-28 21:13:00,
2013-04-28 17:18:00,51.5,50.7,30.12,West,271,0.0,3.0,97,0.04,,,0.92,WeatherCatV1.15B25,2013-04-28 21:18:00,
2013-04-28 17:23:00,51.5,50.7,30.12,West,270,0.0,1.0,97,0.00,,,0.92,WeatherCatV1.15B25,2013-04-28 21:23:00,
2013-04-28 17:28:00,51.5,50.7,30.12,West,269,0.0,0.0,97,0.00,,,0.92,WeatherCatV1.15B25,2013-04-28 21:28:00,
2013-04-28 17:33:00,51.5,50.7,30.12,West,269,0.0,0.0,97,0.00,,,0.93,WeatherCatV1.15B25,2013-04-28 21:33:00,
2013-04-28 17:38:00,51.6,50.8,30.12,West,269,0.0,0.0,97,0.00,,,0.93,WeatherCatV1.15B25,2013-04-28 21:38:00,
2013-04-28 17:43:00,51.6,50.8,30.12,West,269,0.0,0.0,97,0.00,,,0.93,WeatherCatV1.15B25,2013-04-28 21:43:00,
2013-04-28 17:48:00,51.7,50.9,30.14,West,269,0.0,0.0,97,0.00,,,0.93,WeatherCatV1.15B25,2013-04-28 21:48:00,
2013-04-28 17:53:00,51.7,50.9,30.13,WSW,238,0.0,1.0,97,0.00,,,0.94,WeatherCatV1.15B25,2013-04-28 21:53:00,
2013-04-28 17:58:00,51.8,51.0,30.14,WSW,242,0.0,1.0,97,0.00,,,0.94,WeatherCatV1.15B25,2013-04-28 21:58:00,
2013-04-28 18:03:00,51.9,51.1,30.15,WSW,242,0.0,1.0,97,0.06,,,0.95,WeatherCatV1.15B25,2013-04-28 22:03:00,
2013-04-28 18:08:00,51.8,51.0,30.15,SW,231,1.0,2.0,97,0.07,,,0.96,WeatherCatV1.15B25,2013-04-28 22:08:00,
2013-04-28 18:13:00,51.7,50.9,30.15,WNW,286,0.0,0.0,97,0.13,,,0.97,WeatherCatV1.15B25,2013-04-28 22:13:00,
2013-04-28 18:18:00,51.7,50.9,30.15,WNW,286,0.0,1.0,97,0.10,,,0.98,WeatherCatV1.15B25,2013-04-28 22:18:00,
2013-04-28 18:23:00,51.5,50.7,30.15,SW,228,0.0,1.0,97,0.13,,,0.99,WeatherCatV1.15B25,2013-04-28 22:23:00,
2013-04-28 18:28:00,51.5,50.7,30.15,SW,228,0.0,1.0,97,0.10,,,0.99,WeatherCatV1.15B25,2013-04-28 22:28:00,
2013-04-28 18:33:00,51.5,50.7,30.14,SSW,194,0.0,2.0,97,0.06,,,0.99,WeatherCatV1.15B25,2013-04-28 22:33:00,
2013-04-28 18:38:00,51.5,50.7,30.13,WSW,249,3.0,3.0,97,0.04,,,0.99,WeatherCatV1.15B25,2013-04-28 22:38:00,
2013-04-28 18:43:00,51.4,50.6,30.14,South,171,0.0,3.0,97,0.00,,,1.00,WeatherCatV1.15B25,2013-04-28 22:43:00,
2013-04-28 18:48:00,51.5,50.7,30.14,WNW,289,0.0,1.0,97,0.00,,,1.00,WeatherCatV1.15B25,2013-04-28 22:48:00,
2013-04-28 18:53:00,51.4,50.6,30.14,WNW,289,0.0,0.0,97,0.00,,,1.00,WeatherCatV1.15B25,2013-04-28 22:53:00,
2013-04-28 18:58:00,51.4,50.6,30.14,WNW,289,0.0,0.0,97,0.00,,,1.00,WeatherCatV1.15B25,2013-04-28 22:58:00,
2013-04-28 19:03:00,51.4,50.6,30.14,NW,316,0.0,0.0,97,0.00,,,1.01,WeatherCatV1.15B25,2013-04-28 23:03:00,
2013-04-28 19:08:00,51.4,50.6,30.15,NW,316,0.0,0.0,97,0.00,,,1.01,WeatherCatV1.15B25,2013-04-28 23:08:00,
2013-04-28 19:13:00,51.4,50.6,30.14,NW,316,0.0,0.0,97,0.08,,,1.02,WeatherCatV1.15B25,2013-04-28 23:13:00,
2013-04-28 19:18:00,51.4,50.6,30.14,NW,316,0.0,0.0,97,0.07,,,1.03,WeatherCatV1.15B25,2013-04-28 23:18:00,
2013-04-28 19:23:00,51.4,50.6,30.13,West,273,0.0,0.0,97,0.07,,,1.03,WeatherCatV1.15B25,2013-04-28 23:23:00,
2013-04-28 19:28:00,51.3,50.5,30.13,West,273,0.0,0.0,97,0.06,,,1.04,WeatherCatV1.15B25,2013-04-28 23:28:00,
2013-04-28 19:33:00,51.3,50.5,30.12,West,273,0.0,1.0,97,0.06,,,1.04,WeatherCatV1.15B25,2013-04-28 23:33:00,
2013-04-28 19:38:00,51.2,50.4,30.12,West,273,0.0,0.0,97,0.05,,,1.04,WeatherCatV1.15B25,2013-04-28 23:38:00,
2013-04-28 19:43:00,51.2,50.4,30.11,West,273,0.0,1.0,97,0.04,,,1.04,WeatherCatV1.15B25,2013-04-28 23:43:00,
2013-04-28 19:48:00,51.2,50.4,30.11,West,273,0.0,0.0,97,0.00,,,1.04,WeatherCatV1.15B25,2013-04-28 23:48:00,
2013-04-28 19:53:00,51.1,50.3,30.11,West,273,0.0,0.0,97,0.00,,,1.04,WeatherCatV1.15B25,2013-04-28 23:53:00,
2013-04-28 19:58:00,51.1,50.3,30.10,West,273,0.0,1.0,97,0.00,,,1.04,WeatherCatV1.15B25,2013-04-28 23:58:00,
2013-04-28 20:03:00,51.1,50.3,30.10,West,273,0.0,0.0,97,0.00,,,1.05,WeatherCatV1.15B25,2013-04-29 00:03:00,
2013-04-28 20:08:00,51.1,50.3,30.10,West,273,0.0,1.0,97,0.00,,,1.05,WeatherCatV1.15B25,2013-04-29 00:08:00,
2013-04-28 20:13:00,51.1,50.3,30.09,NW,317,0.0,2.0,97,0.00,,,1.05,WeatherCatV1.15B25,2013-04-29 00:13:00,
2013-04-28 20:18:00,51.0,50.2,30.09,SSW,207,0.0,1.0,97,0.00,,,1.05,WeatherCatV1.15B25,2013-04-29 00:18:00,
2013-04-28 20:23:00,51.1,50.3,30.09,NNW,330,0.0,0.0,97,0.00,,,1.05,WeatherCatV1.15B25,2013-04-29 00:23:00,
2013-04-28 20:28:00,51.1,50.6,30.09,NNW,342,1.0,2.0,98,0.00,,,1.05,WeatherCatV1.15B25,2013-04-29 00:28:00,
2013-04-28 20:33:00,51.2,50.7,30.09,NW,314,0.0,0.0,98,0.00,,,1.05,WeatherCatV1.15B25,2013-04-29 00:33:00,
2013-04-28 20:38:00,51.3,50.5,30.09,NW,314,0.0,0.0,97,0.00,,,1.05,WeatherCatV1.15B25,2013-04-29 00:38:00,
2013-04-28 20:43:00,51.3,50.5,30.09,NW,314,0.0,1.0,97,0.00,,,1.05,WeatherCatV1.15B25,2013-04-29 00:43:00,
2013-04-28 20:48:00,51.3,50.5,30.09,NW,316,3.0,3.0,97,0.00,,,1.05,WeatherCatV1.15B25,2013-04-29 00:48:00,
2013-04-28 20:53:00,51.3,50.5,30.09,WNW,298,0.0,2.0,97,0.00,,,1.05,WeatherCatV1.15B25,2013-04-29 00:53:00,
2013-04-28 20:58:00,51.4,50.6,30.09,SW,232,0.0,1.0,97,0.00,,,1.05,WeatherCatV1.15B25,2013-04-29 00:58:00,
2013-04-28 21:03:00,51.3,50.5,30.08,SW,231,0.0,0.0,97,0.00,,,1.05,WeatherCatV1.15B25,2013-04-29 01:03:00,
2013-04-28 21:08:00,51.3,50.5,30.07,SW,231,0.0,1.0,97,0.00,,,1.06,WeatherCatV1.15B25,2013-04-29 01:08:00,
2013-04-28 21:13:00,51.2,50.4,30.05,WNW,300,0.0,2.0,97,0.00,,,1.06,WeatherCatV1.15B25,2013-04-29 01:13:00,
2013-04-28 21:18:00,51.2,50.4,30.03,WNW,296,7.0,7.0,97,0.00,,,1.06,WeatherCatV1.15B25,2013-04-29 01:18:00,
2013-04-28 21:23:00,51.3,50.5,30.04,NW,310,5.0,5.0,97,0.00,,,1.06,WeatherCatV1.15B25,2013-04-29 01:23:00,
2013-04-28 21:28:00,51.5,50.7,30.06,NE,51,2.0,3.0,97,0.00,,,1.06,WeatherCatV1.15B25,2013-04-29 01:28:00,
2013-04-28 21:33:00,51.6,50.8,30.07,East,87,0.0,0.0,97,0.00,,,1.06,WeatherCatV1.15B25,2013-04-29 01:33:00,
2013-04-28 21:38:00,51.5,50.7,30.07,ENE,59,2.0,2.0,97,0.00,,,1.06,WeatherCatV1.15B25,2013-04-29 01:38:00,
2013-04-28 21:43:00,51.5,50.4,30.07,ESE,109,0.0,5.0,96,0.00,,,1.06,WeatherCatV1.15B25,2013-04-29 01:43:00,
2013-04-28 21:48:00,51.6,50.5,30.07,WSW,237,0.0,0.0,96,0.00,,,1.06,WeatherCatV1.15B25,2013-04-29 01:48:00,
2013-04-28 21:53:00,51.5,50.4,30.07,WSW,237,0.0,0.0,96,0.00,,,1.06,WeatherCatV1.15B25,2013-04-29 01:53:00,
2013-04-28 21:58:00,51.5,50.4,30.07,WSW,237,0.0,0.0,96,0.00,,,1.06,WeatherCatV1.15B25,2013-04-29 01:58:00,
2013-04-28 22:03:00,51.4,50.3,30.07,WSW,237,0.0,0.0,96,0.00,,,1.06,WeatherCatV1.15B25,2013-04-29 02:03:00,
2013-04-28 22:08:00,51.3,50.5,30.07,WSW,237,0.0,0.0,97,0.00,,,1.06,WeatherCatV1.15B25,2013-04-29 02:08:00,
2013-04-28 22:13:00,51.2,50.4,30.07,WSW,237,0.0,0.0,97,0.00,,,1.06,WeatherCatV1.15B25,2013-04-29 02:13:00,
2013-04-28 22:18:00,51.2,50.4,30.08,WSW,237,0.0,0.0,97,0.00,,,1.06,WeatherCatV1.15B25,2013-04-29 02:18:00,
2013-04-28 22:23:00,51.0,50.2,30.08,WSW,237,0.0,0.0,97,0.00,,,1.06,WeatherCatV1.15B25,2013-04-29 02:23:00,
2013-04-28 22:28:00,51.0,50.2,30.08,WSW,237,0.0,0.0,97,0.00,,,1.06,WeatherCatV1.15B25,2013-04-29 02:28:00,
2013-04-28 22:33:00,51.0,50.2,30.09,WSW,237,0.0,0.0,97,0.00,,,1.06,WeatherCatV1.15B25,2013-04-29 02:33:00,
2013-04-28 22:38:00,50.9,50.1,30.09,West,269,0.0,1.0,97,0.00,,,1.06,WeatherCatV1.15B25,2013-04-29 02:38:00,
2013-04-28 22:43:00,50.9,50.1,30.09,South,175,0.0,2.0,97,0.00,,,1.06,WeatherCatV1.15B25,2013-04-29 02:43:00,
2013-04-28 22:48:00,50.9,50.1,30.09,SSW,202,0.0,1.0,97,0.00,,,1.06,WeatherCatV1.15B25,2013-04-29 02:48:00,
2013-04-28 22:53:00,50.9,50.1,30.10,NE,43,0.0,1.0,97,0.00,,,1.06,WeatherCatV1.15B25,2013-04-29 02:53:00,
2013-04-28 22:58:00,50.9,50.1,30.10,SSE,155,1.0,2.0,97,0.00,,,1.06,WeatherCatV1.15B25,2013-04-29 02:58:00,
2013-04-28 23:03:00,50.9,50.1,30.11,SSW,213,0.0,1.0,97,0.00,,,1.06,WeatherCatV1.15B25,2013-04-29 03:03:00,
2013-04-28 23:08:00,50.9,50.1,30.11,ESE,112,0.0,4.0,97,0.00,,,1.06,WeatherCatV1.15B25,2013-04-29 03:08:00,
2013-04-28 23:13:00,50.9,50.1,30.11,SSW,209,0.0,1.0,97,0.00,,,1.06,WeatherCatV1.15B25,2013-04-29 03:13:00,
2013-04-28 23:18:00,50.9,50.1,30.11,SSW,209,0.0,0.0,97,0.00,,,1.06,WeatherCatV1.15B25,2013-04-29 03:18:00,
2013-04-28 23:23:00,50.8,50.0,30.11,SSE,161,0.0,1.0,97,0.00,,,1.06,WeatherCatV1.15B25,2013-04-29 03:23:00,
2013-04-28 23:28:00,50.8,50.0,30.11,SSE,160,0.0,0.0,97,0.00,,,1.06,WeatherCatV1.15B25,2013-04-29 03:28:00,
2013-04-28 23:33:00,50.9,50.1,30.11,SSE,161,0.0,0.0,97,0.00,,,1.06,WeatherCatV1.15B25,2013-04-29 03:33:00,
2013-04-28 23:38:00,50.9,50.1,30.10,SSE,160,0.0,0.0,97,0.00,,,1.06,WeatherCatV1.15B25,2013-04-29 03:38:00,
2013-04-28 23:43:00,50.8,50.0,30.10,WSW,245,3.0,5.0,97,0.00,,,1.06,WeatherCatV1.15B25,2013-04-29 03:43:00,
2013-04-28 23:48:00,50.8,50.0,30.10,WSW,240,0.0,0.0,97,0.00,,,1.06,WeatherCatV1.15B25,2013-04-29 03:48:00,
2013-04-28 23:53:00,50.8,50.3,30.10,WSW,246,3.0,3.0,98,0.00,,,1.06,WeatherCatV1.15B25,2013-04-29 03:53:00,
2013-04-28 23:58:00,50.8,50.0,30.10,SW,235,0.0,0.0,97,0.00,,,1.06,WeatherCatV1.15B25,2013-04-29 03:58:00,